El Reno, OK

2:52 PM CST on February 09, 2016 (GMT -0600)
El Reno

Weather History for KRQO - April, 2014

Change the Weather History Date:

Friday, April 18, 2014

  Actual Average (KOKC) Record (KOKC)
Temperature  
Mean Temperature 52 °F 62 °F  
Max Temperature 71 °F 73 °F 96 °F (1925)
Min Temperature 33 °F 50 °F 30 °F (1953)
Degree Days  
Heating Degree Days 13 5  
Month to date heating degree days 128  
Since 1 July heating degree days 3287  
Cooling Degree Days 0 2  
Month to date cooling degree days 24  
Year to date cooling degree days 37  
Growing Degree Days 2 (Base 50)    
Moisture  
Dew Point 41 °F    
Average Humidity 67    
Maximum Humidity 100    
Minimum Humidity 35    
Precipitation  
Precipitation 0.00 in 0.10 in 2.97 in (1942)
Month to date precipitation 1.63  
Year to date precipitation 7.66  
Snow  
Snow 0.00 in 0.00 in 0.00 in ()
Month to date snowfall 0.0  
Since 1 July snowfall 7.6  
Snow Depth -    
Sea Level Pressure  
Sea Level Pressure 30.21 in    
Wind  
Wind Speed 8 mph (ESE)    
Max Wind Speed 14 mph    
Max Gust Speed 20 mph    
Visibility 8 miles    
Events      
T = Trace of Precipitation, MM = Missing Value Source: NWS Daily Summary

Daily Weather History Graph

Daily Weather History Graph

Search for Another Location

Airport or City:

Trip Planner

Search our weather history database for the weather conditions in past years. The results will help you decide how hot, cold, wet, or windy it might be!

Date:

Astronomy

Apr. 18, 2014 Rise Set
Actual Time 6:55 AM CDT 8:07 PM CDT
Civil Twilight 6:29 AM CDT 8:34 PM CDT
Nautical Twilight 5:57 AM CDT 9:05 PM CDT
Astronomical Twilight 5:25 AM CDT 9:38 PM CDT
Moon 11:49 PM CDT (4/18) 9:23 AM CDT (4/18)
Length of Visible Light 14h 04m
Length of Day
13h 11m
Waning Gibbous, 87% of the Moon is Illuminated
Apr 18
Waning Gibbous
Apr 22
Last Quarter
Apr 29
New
May 6
First Quarter
May 14
Full

Hourly Weather History & Observations

Time (CDT) Temp. Windchill Dew Point Humidity Pressure Visibility Wind Dir Wind Speed Gust Speed Precip Events Conditions
12:15 AM 44.6 °F 40.2 °F 41.0 °F 87% 30.26 in 7.0 mi North 8.1 mph - N/A   Overcast
12:35 AM 44.6 °F 40.2 °F 41.0 °F 87% 30.26 in 7.0 mi North 8.1 mph - N/A   Overcast
12:55 AM 44.6 °F 40.7 °F 41.0 °F 87% 30.26 in 7.0 mi North 6.9 mph - N/A   Overcast
1:15 AM 44.6 °F 40.7 °F 41.0 °F 87% 30.26 in 7.0 mi North 6.9 mph - N/A   Overcast
1:35 AM 44.6 °F 40.7 °F 41.0 °F 87% 30.26 in 7.0 mi North 6.9 mph - N/A   Overcast
1:55 AM 44.6 °F 40.7 °F 41.0 °F 87% 30.26 in 7.0 mi North 6.9 mph - N/A   Overcast
2:15 AM 42.8 °F 37.5 °F 41.0 °F 93% 30.25 in 7.0 mi North 9.2 mph - N/A   Overcast
2:35 AM 42.8 °F 38.0 °F 39.2 °F 87% 30.24 in 7.0 mi North 8.1 mph - N/A   Mostly Cloudy
2:55 AM 41.0 °F 37.1 °F 37.4 °F 87% 30.24 in 7.0 mi North 5.8 mph - N/A   Overcast
3:15 AM 41.0 °F 37.1 °F 37.4 °F 87% 30.24 in 5.0 mi North 5.8 mph - N/A   Overcast
3:35 AM 39.2 °F 34.2 °F 37.4 °F 93% 30.23 in 5.0 mi North 6.9 mph - N/A   Scattered Clouds
3:55 AM 37.4 °F 32.8 °F 35.6 °F 93% 30.24 in 5.0 mi North 5.8 mph - N/A   Clear
4:15 AM 35.6 °F 29.9 °F 35.6 °F 100% 30.23 in 3.0 mi NNW 6.9 mph - N/A   Clear
4:35 AM 35.6 °F 29.9 °F 33.8 °F 93% 30.24 in 3.0 mi North 6.9 mph - N/A   Clear
4:55 AM 33.8 °F 27.7 °F 33.8 °F 100% 30.24 in 2.5 mi North 6.9 mph - N/A   Clear
5:15 AM 33.8 °F 27.7 °F 33.8 °F 100% 30.24 in 2.5 mi North 6.9 mph - N/A   Clear
5:35 AM 33.8 °F 27.7 °F 33.8 °F 100% 30.24 in 2.5 mi NNE 6.9 mph - N/A   Clear
5:55 AM 35.6 °F 29.9 °F 33.8 °F 93% 30.24 in 3.0 mi North 6.9 mph - N/A   Clear
6:15 AM 35.6 °F 29.9 °F 33.8 °F 93% 30.26 in 2.5 mi North 6.9 mph - N/A   Mostly Cloudy
6:35 AM 35.6 °F 29.2 °F 35.6 °F 100% 30.26 in 2.5 mi North 8.1 mph - N/A   Overcast
6:55 AM 35.6 °F 29.9 °F 35.6 °F 100% 30.26 in 1.8 mi North 6.9 mph - N/A   Overcast
7:15 AM 35.6 °F 30.7 °F 35.6 °F 100% 30.27 in 1.8 mi North 5.8 mph - N/A   Mostly Cloudy
7:35 AM 37.4 °F 33.8 °F 35.6 °F 93% 30.27 in 1.8 mi North 4.6 mph - N/A   Mist
7:55 AM 39.2 °F 35.9 °F 37.4 °F 93% 30.27 in 2.5 mi North 4.6 mph - N/A   Clear
8:15 AM 41.0 °F 38.0 °F 37.4 °F 87% 30.27 in 4.0 mi NNE 4.6 mph - N/A   Clear
8:35 AM 42.8 °F 40.1 °F 37.4 °F 81% 30.28 in 4.0 mi NE 4.6 mph - N/A   Haze
8:55 AM 44.6 °F 41.4 °F 39.2 °F 81% 30.28 in 5.0 mi ENE 5.8 mph - N/A   Haze
9:15 AM 46.4 °F 44.3 °F 41.0 °F 81% 30.27 in 5.0 mi NE 4.6 mph - N/A   Haze
9:35 AM 50.0 °F - 41.0 °F 71% 30.28 in 7.0 mi NE 5.8 mph - N/A   Scattered Clouds
10:15 AM 53.6 °F - 42.8 °F 67% 30.27 in 7.0 mi East 4.6 mph - N/A   Clear
10:35 AM 55.4 °F - 42.8 °F 63% 30.27 in 7.0 mi East 6.9 mph - N/A   Clear
10:55 AM 59.0 °F - 44.6 °F 59% 30.27 in 7.0 mi ESE 6.9 mph - N/A   Clear
11:15 AM 60.8 °F - 44.6 °F 55% 30.27 in 10.0 mi ESE 8.1 mph - N/A   Clear
11:35 AM 60.8 °F - 42.8 °F 52% 30.26 in 10.0 mi SE 9.2 mph - N/A   Clear
11:55 AM 62.6 °F - 42.8 °F 48% 30.26 in 10.0 mi ESE 8.1 mph - N/A   Clear
12:15 PM 64.4 °F - 41.0 °F 42% 30.25 in 10.0 mi ESE 10.4 mph - N/A   Clear
12:35 PM 64.4 °F - 42.8 °F 45% 30.24 in 10.0 mi SE 9.2 mph 16.1 mph N/A   Clear
12:55 PM 68.0 °F - 41.0 °F 37% 30.23 in 10.0 mi SE 8.1 mph - N/A   Clear
1:15 PM 68.0 °F - 42.8 °F 40% 30.22 in 10.0 mi SE 6.9 mph - N/A   Clear
1:35 PM 68.0 °F - 42.8 °F 40% 30.22 in 10.0 mi SE 12.7 mph 17.3 mph N/A   Clear
1:55 PM 69.8 °F - 42.8 °F 38% 30.21 in 10.0 mi SSE 12.7 mph 18.4 mph N/A   Clear
2:15 PM 69.8 °F - 42.8 °F 38% 30.20 in 10.0 mi SSE 12.7 mph - N/A   Clear
2:35 PM 69.8 °F - 42.8 °F 38% 30.20 in 10.0 mi SE 11.5 mph - N/A   Clear
2:55 PM 69.8 °F - 41.0 °F 35% 30.19 in 10.0 mi SSE 11.5 mph 17.3 mph N/A   Clear
3:15 PM 69.8 °F - 42.8 °F 38% 30.18 in 10.0 mi SSE 11.5 mph 18.4 mph N/A   Clear
3:35 PM 71.6 °F - 42.8 °F 35% 30.17 in 10.0 mi SSE 8.1 mph - N/A   Scattered Clouds
4:15 PM 71.6 °F - 42.8 °F 35% 30.15 in 10.0 mi South 12.7 mph 19.6 mph N/A   Scattered Clouds
4:35 PM 71.6 °F - 42.8 °F 35% 30.15 in 10.0 mi South 13.8 mph - N/A   Mostly Cloudy
4:55 PM 71.6 °F - 42.8 °F 35% 30.14 in 10.0 mi South 12.7 mph 19.6 mph N/A   Scattered Clouds
5:15 PM 69.8 °F - 42.8 °F 38% 30.14 in 10.0 mi SSE 9.2 mph - N/A   Clear
5:35 PM 69.8 °F - 44.6 °F 40% 30.13 in 10.0 mi South 9.2 mph - N/A   Clear
5:55 PM 71.6 °F - 42.8 °F 35% 30.12 in 10.0 mi SSE 12.7 mph - N/A   Clear
6:15 PM 69.8 °F - 42.8 °F 38% 30.12 in 10.0 mi SSE 11.5 mph - N/A   Scattered Clouds
6:35 PM 69.8 °F - 42.8 °F 38% 30.11 in 10.0 mi SSE 10.4 mph - N/A   Scattered Clouds
6:55 PM 69.8 °F - 42.8 °F 38% 30.11 in 10.0 mi South 11.5 mph - N/A   Scattered Clouds
7:15 PM 68.0 °F - 42.8 °F 40% 30.11 in 10.0 mi South 10.4 mph - N/A   Scattered Clouds
7:35 PM 66.2 °F - 44.6 °F 46% 30.11 in 10.0 mi South 8.1 mph - N/A   Clear
7:55 PM 62.6 °F - 44.6 °F 52% 30.11 in 10.0 mi SSE 8.1 mph - N/A   Clear
8:15 PM 59.0 °F - 44.6 °F 59% 30.11 in 10.0 mi South 8.1 mph - N/A   Clear
8:35 PM 57.2 °F - 44.6 °F 63% 30.11 in 10.0 mi SSE 9.2 mph - N/A   Clear
8:55 PM 55.4 °F - 42.8 °F 63% 30.12 in 10.0 mi South 6.9 mph - N/A   Clear
9:15 PM 53.6 °F - 42.8 °F 67% 30.12 in 10.0 mi South 8.1 mph - N/A   Clear
9:35 PM 53.6 °F - 42.8 °F 67% 30.13 in 10.0 mi SSE 8.1 mph - N/A   Clear
10:15 PM 53.6 °F - 42.8 °F 67% 30.13 in 10.0 mi SE 8.1 mph - N/A   Clear
10:35 PM 51.8 °F - 42.8 °F 71% 30.13 in 10.0 mi SSE 6.9 mph - N/A   Clear
10:55 PM 51.8 °F - 42.8 °F 71% 30.13 in 10.0 mi SSE 8.1 mph - N/A   Clear
11:15 PM 51.8 °F - 42.8 °F 71% 30.13 in 10.0 mi SE 6.9 mph - N/A   Clear
11:35 PM 51.8 °F - 42.8 °F 71% 30.14 in 10.0 mi SE 8.1 mph - N/A   Clear
11:55 PM 51.8 °F - 42.8 °F 71% 30.14 in 10.0 mi SSE 8.1 mph - N/A   Clear